Regional Weather Roundup
Issued by NWS

Home | Current Version | Previous Version | Graphics & Text | Print | Product List | Glossary On
Versions: 1 2 3 4 5 6 7 8 9 10 11 12 13 14 15 16 17 18 19 20 21 22 23 24 25 26 27 28 29 30 31 32 33 34 35 36 37 38 39 40 41 42 43 44 45 46 47 48 49 50
000
ASUS45 KCYS 260310
RWRWY

WYOMING REGIONAL WEATHER ROUNDUP
NATIONAL WEATHER SERVICE CHEYENNE WY
900 PM MDT SAT APR 25 2015

NOTE:  "FAIR" INDICATES FEW OR NO CLOUDS BELOW 12,000 FEET
WITH NO SIGNIFICANT WEATHER AND/OR OBSTRUCTIONS TO VISIBILITY.

WYZ001-260400-
YELLOWSTONE NATIONAL PARK

CITY           SKY/WX    TMP DP  RH WIND       PRES   REMARKS
LK YELLOWSTONE   N/A     32  24  72 CALM      29.83R
W YELLOWSTONE  NOT AVBL

$$
WYZ002>013-054>058-071-098>099-260400-
NORTHERN WYOMING

CITY           SKY/WX    TMP DP  RH WIND       PRES   REMARKS
JACKSON        MOCLDY    39  28  65 N5        29.77S
CODY           MOCLDY    43  34  70 N10       29.84R
GREYBULL       FAIR      47  32  56 N14       29.80R
WORLAND        MOCLDY    47  35  63 NE6       29.79R
SHERIDAN       CLOUDY    42  35  76 N3        29.91R
BUFFALO        CLOUDY    41  34  76 N10       29.90R
GILLETTE       CLOUDY    41  34  76 NE7       29.87R
HULETT         CLOUDY    41  37  87 N5        29.89R
NEWCASTLE      MOCLDY    45  43  93 N10       29.83R

$$
WYZ014>020-022>026-101>103-260400-
CENTRAL WYOMING

CITY           SKY/WX    TMP DP  RH WIND       PRES   REMARKS
BIG PINEY      MOCLDY    44  28  53 E7        29.76R
PINEDALE       FAIR      41  32  70 NE5       29.77S
DUBOIS         CLOUDY    39  30  70 SE15      29.78R WCI  31
LANDER         CLOUDY    46  36  68 NW8       29.77R
RIVERTON       CLOUDY    47  33  58 NE12      29.78R
CASPER         CLOUDY    43  34  70 NE15      29.84R
DOUGLAS        FAIR      46  38  73 N8        29.84R

$$
WYZ021-027>030-104>119-260400-
SOUTHERN WYOMING

CITY           SKY/WX    TMP DP  RH WIND       PRES   REMARKS
EVANSTON       LGT RAIN  36  34  92 N10       29.74S WCI  28
KEMMERER       LGT RAIN  36  34  93 NE3       29.77S
FORT BRIDGER   DRIZZLE   39  39 100 W6        29.77F WCI  35
ROCK SPRINGS   CLOUDY    46  30  53 S14       29.75R
DIXON          MOCLDY    46  35  64 E6        29.79S
RAWLINS        FAIR      42  26  53 NE7       29.79R
SARATOGA       FAIR      41  28  60 CALM      29.81R
LARAMIE        CLOUDY    42  35  76 CALM      29.82R
CHEYENNE       CLOUDY    46  40  79 E8        29.80R
TORRINGTON     CLOUDY    56  40  55 N12       29.77R
PINE BLUFFS    CLOUDY    46  43  87 E9        29.82R

$$


USA.gov is the U.S. government's official web portal to all federal, state and local government web resources and services.